Regional Weather Roundup
Issued by NWS

Home | Current Version | Previous Version | Text Only | Print | Product List | Glossary Off
Versions: 1 2 3 4 5 6 7 8 9 10 11 12 13 14 15 16 17 18 19 20 21 22 23 24 25 26 27 28 29 30 31 32 33 34 35 36 37 38 39 40 41 42 43 44 45 46 47 48 49 50

000
ASUS45 KCYS 052310
RWRWY

WYOMING REGIONAL WEATHER ROUNDUP
NATIONAL WEATHER SERVICE CHEYENNE WY
500 PM MDT TUE MAY 05 2015

NOTE:  "FAIR" INDICATES FEW OR NO CLOUDS BELOW 12,000 FEET
WITH NO SIGNIFICANT WEATHER AND/OR OBSTRUCTIONS TO VISIBILITY.

WYZ001-060000-
YELLOWSTONE NATIONAL PARK

CITY           SKY/WX    TMP DP  RH WIND       PRES   REMARKS
LK YELLOWSTONE   N/A     56  33  42 W8        29.88F
W YELLOWSTONE  NOT AVBL

$$
WYZ002>013-054>058-071-098>099-060000-
NORTHERN WYOMING

CITY           SKY/WX    TMP DP  RH WIND       PRES   REMARKS
JACKSON        PTSUNNY   57  37  47 E3        29.82S
CODY           FAIR      70  36  28 SW9       29.72F
GREYBULL       FAIR      78  33  19 W10       29.62F
WORLAND        FAIR      76  34  21 CALM      29.64F
SHERIDAN       FAIR      70  42  36 SE15      29.69F
BUFFALO        FAIR      70  44  39 S12       29.76F
GILLETTE       FAIR      68  47  46 SE26G33   29.76F
HULETT         MOCLDY    72  46  40 SW20      29.80F
NEWCASTLE      FAIR      64  45  48 SE17G23   29.84F

$$
WYZ014>020-022>026-101>103-060000-
CENTRAL WYOMING

CITY           SKY/WX    TMP DP  RH WIND       PRES   REMARKS
BIG PINEY      CLOUDY    54  36  50 S17       29.84R
PINEDALE       CLOUDY    55  32  41 SW16G28   29.83R
DUBOIS         MOCLDY    61  32  33 SE9G16    29.79F
LANDER         PTSUNNY   70  38  31 S3        29.71F
RIVERTON       FAIR      70  34  26 E7        29.73F
CASPER         PTSUNNY   67  44  43 E16       29.73F
DOUGLAS        FAIR      63  47  55 SE26G37   29.81F

$$
WYZ021-027>030-104>119-060000-
SOUTHERN WYOMING

CITY           SKY/WX    TMP DP  RH WIND       PRES   REMARKS
EVANSTON       CLOUDY    50  46  86 SW8       29.88F
KEMMERER       CLOUDY    45  43  93 S13       29.88F
FORT BRIDGER   RAIN      48  48 100 W10       29.90F
ROCK SPRINGS   CLOUDY    57  39  51 W16       29.80S
DIXON          DRIZZLE   58  44  60 E17G29    29.81F
RAWLINS        FAIR      64  35  34 NE12      29.78F
SARATOGA       CLOUDY    55  41  58 E12G21    29.82S
LARAMIE        CLOUDY    49  41  74 SE26G32   29.85F
CHEYENNE       CLOUDY    48  47  96 SE14      29.87F
TORRINGTON     CLOUDY    58  49  72 SE17G23   29.84S
PINE BLUFFS    DRIZZLE   50  50 100 SE10G16   29.88F

$$



USA.gov is the U.S. government's official web portal to all federal, state and local government web resources and services.